User: anonymous   Login
Location: Muenchen
(48.1800°N, 11.5800°E)
Time: 11:22:20
(UTC+01:00)
Language:

Iridium 37 - Orbit

View from above orbital plane
View from above orbital plane
View from above satellite
View from above satellite

Ground track
Ground track

The orbit data is extracted from the following two-line orbital elements,

1 24968U 97056D   15026.37541854  .00000316  00000-0  10582-3 0  1279
2 24968 086.3998 323.6871 0002202 099.2437 260.9008 14.34219304907433
Epoch (UTC): 26 January 2015 09:00:36
Eccentricity: 0.0002202
inclination: 86.3998°
perigee height: 776 km
apogee height: 779 km
right ascension of ascending node: 323.6871°
argument of perigee: 99.2437°
revolutions per day: 14.34219304
mean anomaly at epoch: 260.9008°
orbit number at epoch: 90743

The dashed part of the orbit path shows where the satellite is in the earth's shadow,  

DLR